Location: Diati
(11.8376°N, 2.5966°E)
Time: 17:21:34
(UTC+00:00)

Cosmos 1707 - Pass Details

Date: 21 September 2020
Orbit: 515 x 531 km, 82.5° (Epoch: 19 October)

Event Time Altitude Azimuth Distance (km) Brightness Sun altitude
Rises 18:46:42 0° 12° (NNE) 2,619 6.2 -15.7°
Reaches altitude 10° 18:49:02 10° 24° (NNE) 1,734 5.2 -16.2°
Enters shadow 18:50:34 20° 41° (NE) 1,244 4.3 -16.6°
